[[{"header":{"parameterUnit":"m.s-1","parameterCategory":1,"la1":30.2991,"la2":30.254,"lo1":-89.0895,"lo2":-89.0444,"dy":0.0017,"dx":0.0017,"nx":28,"ny":28,"refTime":"2024-08-10T21:00:00:Z","depth":0,"parameterNumber":2,"parameterNumberName":"U-component_of_WINDS"},"data":[0,0,0,0,0,0,0,0,0,0,0,0,0,0,0,0,0,0,0,0,0,0,0,0,0,0,0,0,0,0,0,0,0,0,0,0,0,0,0,0,0,0,0,0,0,0,0,0,0,0,0,0,0,0,0,0,0,0,1.5192,1.5191,0,1.516,1.516,1.5159,1.5089,1.5088,1.5087,1.5085,1.5055,1.5055,1.5056,0,0,0,0,0,0,0,0,0,0,0,0,0,1.5195,1.5195,1.5192,1.5191,1.5191,1.516,1.516,1.5159,1.509,1.5088,1.5086,1.5085,1.5054,1.5055,1.5056,0,0,0,0,0,0,0,0,0,0,0,0,0,1.5181,1.5195,1.5192,1.5153,1.5149,1.516,1.516,1.5159,1.509,1.5088,1.5086,1.5084,1.5054,1.5055,1.5056,1.5103,0,0,1.5058,1.5058,0,0,0,0,0,0,0,0,1.5182,1.5181,1.5159,1.5155,1.5151,1.5126,1.5149,1.514,1.5091,1.5112,1.5085,1.5083,1.508,1.5079,1.5078,1.5102,1.5101,1.5058,1.5059,1.5059,1.5059,0,0,0,0,0,0,0,1.5183,1.5182,1.5179,1.5159,1.5154,1.5137,1.5133,1.5147,1.5109,1.511,1.5105,1.5102,1.5078,1.5077,1.5076,1.51,1.5058,1.5059,1.5059,1.506,1.5163,1.5166,0,0,0,0,0,0,1.519,1.5184,1.518,1.5178,1.5162,1.5139,1.5134,1.5137,1.5108,1.5102,1.5104,1.5099,1.5077,1.5076,1.5075,1.513,1.5059,1.506,1.506,1.5161,1.5164,1.5166,0,0,0,0,0,0,1.519,1.519,1.5182,1.518,1.5177,1.5141,1.5144,1.5137,1.5136,1.5104,1.5097,1.511,1.5075,1.5074,1.5097,1.5128,1.506,1.5061,1.5158,1.5162,1.5165,1.5239,0,0,0,0,0,0,1.519,1.519,1.5208,1.518,1.5178,1.5204,1.5146,1.5138,1.5137,1.5131,1.5108,1.5102,1.5073,1.5096,1.5098,1.5127,1.5061,1.5155,1.516,1.5164,1.5234,1.5245,1.5254,0,0,0,0,0,1.5191,1.523,1.5209,1.5209,1.5198,1.5205,1.5204,1.517,1.514,1.5157,1.5137,1.5102,1.5124,1.5099,1.51,1.5131,1.5153,1.5159,1.5164,1.5229,1.5243,1.5254,0,0,0,0,0,0,1.5262,1.5225,1.5202,1.5233,1.5223,1.5193,1.5214,1.5185,1.5183,1.5177,1.5135,1.513,1.5159,1.5147,1.512,1.5176,1.5133,1.5139,1.5183,1.5195,1.5205,1.5207,1.5062,0,0,0,0,0,1.5281,1.5289,1.5257,1.5288,1.5284,1.5251,1.5252,1.5227,1.5215,1.521,1.5191,1.5181,1.5186,1.519,1.5192,1.5232,1.5226,1.5253,1.5264,1.5272,1.5278,1.5299,1.5311,1.5183,1.5183,1.5183,0,0,1.5321,1.5302,1.531,1.5302,1.5291,1.5302,1.5247,1.526,1.5268,1.5212,1.5233,1.5219,1.5205,1.5237,1.525,1.5228,1.5312,1.5279,1.5286,1.5286,1.5305,1.5317,1.5328,1.5187,1.5186,1.5186,0,0,1.5399,1.5386,1.541,1.5401,1.5385,1.5362,1.5368,1.5343,1.5332,1.5352,1.5311,1.532,1.5328,1.532,1.5318,1.5395,1.5363,1.5397,1.5449,1.5471,1.5481,1.5489,1.5518,1.5528,1.5402,1.5402,1.5402,0,1.5451,1.5464,1.5427,1.5443,1.5441,1.5391,1.5416,1.5409,1.5395,1.5395,1.5371,1.5381,1.5368,1.5398,1.5417,1.5416,1.5422,1.5399,1.5482,1.549,1.5498,1.5525,1.5535,1.5406,1.5406,1.5406,1.5405,0,1.5529,1.554,1.5561,1.5549,1.555,1.557,1.5537,1.5542,1.5517,1.5498,1.5519,1.5503,1.5501,1.5506,1.5482,1.5533,1.552,1.5489,1.5446,1.5515,1.5539,1.5549,1.5413,1.5411,1.541,1.5409,0,0,1.5651,1.5618,1.5627,1.5621,1.56,1.5608,1.5627,1.5625,1.5631,1.5623,1.5639,1.5648,1.5619,1.5616,1.5591,1.561,1.5673,1.5577,1.5576,1.5596,1.5729,1.5753,1.5765,1.5652,1.5654,1.5655,1.5731,0,1.5725,1.5754,1.5722,1.5759,1.5768,1.5721,1.5738,1.5728,1.5711,1.5717,1.5698,1.5705,1.5667,1.5665,1.5681,1.5662,1.5699,1.5656,1.5667,1.5668,1.5672,1.5778,1.5802,1.5874,1.574,1.5741,1.5743,0,1.5814,1.5811,1.5849,1.5827,1.5829,1.5845,1.5841,1.5847,1.5835,1.5822,1.5819,1.5788,1.5807,1.5764,1.5789,1.576,1.5763,1.5755,1.5757,1.5756,1.571,1.5781,1.5896,1.5908,1.5757,1.5756,1.5755,0,1.59,1.5905,1.5928,1.5925,1.5899,1.5912,1.5902,1.5888,1.5889,1.5886,1.5887,1.5887,1.5887,1.5887,1.5858,1.583,1.5887,1.5842,1.5877,1.5878,1.5891,1.5891,1.601,1.5893,1.5893,1.5892,1.5892,0,1.5986,1.6011,1.5967,1.5981,1.6008,1.5971,1.6,1.5985,1.5973,1.5985,1.5945,1.5957,1.5917,1.5925,1.5903,1.5927,1.5928,1.5918,1.5911,1.5921,1.5923,1.5923,1.5917,1.5895,1.5895,1.5894,1.5894,0,1.6086,1.6057,1.608,1.6054,1.6048,1.607,1.6048,1.6061,1.6042,1.6057,1.6059,1.6028,1.6036,1.6006,1.6009,1.5994,1.6031,1.6016,1.6035,1.6031,1.6068,1.6065,1.6191,1.6206,1.6079,1.608,1.6081,0,1.6143,1.6161,1.6138,1.6142,1.6135,1.6143,1.6144,1.6109,1.6112,1.61,1.6115,1.6119,1.6121,1.6136,1.6114,1.6117,1.6102,1.6146,1.6102,1.6112,1.6103,1.6103,1.6105,1.6155,1.6157,1.6158,1.6159,0,1.6247,1.6232,1.6235,1.6234,1.6237,1.6234,1.6229,1.6235,1.6197,1.6203,1.621,1.6211,1.6214,1.622,1.6218,1.6208,1.6178,1.6173,1.6181,1.6192,1.6202,1.6198,1.6061,1.617,1.6169,1.6168,1.6168,1.6167,1.6327,1.6342,1.6328,1.6333,1.6326,1.6322,1.6333,1.6315,1.632,1.632,1.6299,1.6311,1.6299,1.6293,1.6287,1.6297,1.6276,1.6288,1.6291,1.6295,1.6302,1.6201,1.6296,1.6296,1.6295,1.6295,1.6295,0,1.643,1.6419,1.6424,1.6418,1.6423,1.6393,1.6386,1.6392,1.6403,1.6395,1.6397,1.6406,1.6411,1.6391,1.6393,1.6405,1.6391,1.6407,1.6406,1.6404,1.6319,1.6312,1.6418,1.6418,1.6418,1.6418,1.6418,1.6418,1.6484,1.6507,1.6491,1.6511,1.65,1.6511,1.6509,1.6506,1.65,1.6511,1.6515,1.6502,1.6489,1.649,1.6494,1.6488,1.6491,1.6512,1.6501,1.6422,1.641,1.6399,1.6392,1.6513,1.6513,1.6586,1.6586,1.6587]},{"header":{"parameterUnit":"m.s-1","parameterCategory":1,"la1":30.2991,"la2":30.254,"lo1":-89.0895,"lo2":-89.0444,"dy":0.0017,"dx":0.0017,"nx":28,"ny":28,"refTime":"2024-08-10T21:00:00:Z","depth":0,"parameterNumber":3,"parameterNumberName":"V-component_of_WINDS"},"data":[0,0,0,0,0,0,0,0,0,0,0,0,0,0,0,0,0,0,0,0,0,0,0,0,0,0,0,0,0,0,0,0,0,0,0,0,0,0,0,0,0,0,0,0,0,0,0,0,0,0,0,0,0,0,0,0,0,0,0.4745,0.4745,0,0.4707,0.4706,0.4706,0.4712,0.4713,0.4713,0.4714,0.4673,0.4671,0.4669,0,0,0,0,0,0,0,0,0,0,0,0,0,0.4821,0.482,0.4745,0.4745,0.4744,0.4707,0.4706,0.4706,0.4712,0.4713,0.4713,0.4714,0.4673,0.4671,0.4669,0,0,0,0,0,0,0,0,0,0,0,0,0,0.4786,0.4819,0.4745,0.4743,0.4742,0.4707,0.4706,0.4706,0.4712,0.4713,0.4714,0.4715,0.4674,0.4671,0.4669,0.4633,0,0,0.4661,0.466,0,0,0,0,0,0,0,0,0.4788,0.4783,0.4744,0.4743,0.4742,0.4715,0.4718,0.4681,0.4711,0.4723,0.4714,0.4715,0.4686,0.4682,0.4673,0.4631,0.4629,0.4661,0.4659,0.4658,0.4657,0,0,0,0,0,0,0,0.479,0.4785,0.473,0.4743,0.4742,0.4743,0.4739,0.4711,0.4699,0.4722,0.4723,0.4718,0.4686,0.4675,0.4672,0.4629,0.4661,0.4659,0.4657,0.4656,0.4554,0.4553,0,0,0,0,0,0,0.4794,0.4787,0.4731,0.4729,0.4768,0.4741,0.4736,0.4723,0.47,0.4697,0.4717,0.4719,0.4679,0.4675,0.4671,0.4626,0.4658,0.4656,0.4654,0.4555,0.4554,0.4552,0,0,0,0,0,0,0.4795,0.4789,0.4733,0.4758,0.4751,0.4738,0.4723,0.4722,0.4711,0.4696,0.4694,0.4709,0.468,0.4674,0.4642,0.4625,0.4655,0.4652,0.4556,0.4555,0.4553,0.4537,0,0,0,0,0,0,0.4798,0.4789,0.4776,0.4758,0.475,0.4706,0.4722,0.472,0.4707,0.4708,0.4688,0.4685,0.468,0.4646,0.464,0.4622,0.465,0.4558,0.4556,0.4554,0.4539,0.4535,0.4532,0,0,0,0,0,0.48,0.4774,0.4776,0.4769,0.4733,0.4705,0.47,0.4696,0.4706,0.4692,0.4682,0.4686,0.4628,0.4643,0.4635,0.4617,0.4559,0.4556,0.4554,0.4541,0.4536,0.4532,0,0,0,0,0,0,0.479,0.4771,0.4773,0.474,0.4724,0.4706,0.4689,0.4691,0.4671,0.4673,0.4667,0.4663,0.463,0.462,0.4637,0.458,0.4595,0.459,0.4587,0.4583,0.4579,0.4581,0.4648,0,0,0,0,0,0.4784,0.4764,0.4748,0.472,0.4712,0.4701,0.4689,0.4687,0.467,0.4663,0.465,0.4633,0.4611,0.4596,0.4575,0.4538,0.4533,0.4521,0.4518,0.4515,0.4511,0.4489,0.4483,0.4544,0.4544,0.4544,0,0,0.4771,0.4758,0.4746,0.4717,0.4705,0.4682,0.4696,0.4672,0.4655,0.4659,0.4628,0.4618,0.4598,0.4563,0.4547,0.4554,0.4493,0.4511,0.4509,0.4507,0.4486,0.448,0.4475,0.4542,0.4542,0.4543,0,0,0.4736,0.4725,0.47,0.4687,0.4668,0.4661,0.4655,0.4636,0.463,0.4598,0.4601,0.458,0.4542,0.4527,0.4515,0.4473,0.4475,0.4466,0.4446,0.4425,0.442,0.4416,0.44,0.4394,0.4463,0.4463,0.4463,0,0.4723,0.469,0.4686,0.4662,0.4649,0.4652,0.4625,0.4613,0.4587,0.4577,0.4586,0.4537,0.4524,0.4485,0.4475,0.4465,0.4457,0.4468,0.4421,0.4417,0.4413,0.4397,0.4391,0.4462,0.4462,0.4462,0.4462,0,0.4673,0.465,0.4632,0.4608,0.4592,0.4567,0.4558,0.4543,0.4542,0.4534,0.4501,0.4486,0.4461,0.4451,0.445,0.4411,0.4416,0.4423,0.4437,0.4406,0.4391,0.4385,0.446,0.4461,0.4461,0.4461,0,0,0.4631,0.4604,0.4598,0.4586,0.4564,0.4546,0.452,0.4496,0.4482,0.4465,0.4442,0.4409,0.4415,0.4401,0.4398,0.4379,0.4345,0.4388,0.4388,0.438,0.43,0.4294,0.4287,0.4347,0.4346,0.4345,0.4301,0,0.4593,0.4548,0.4543,0.4503,0.4481,0.4483,0.446,0.4444,0.4435,0.4414,0.4405,0.4381,0.4392,0.4383,0.4365,0.4353,0.4329,0.4357,0.4324,0.4323,0.4328,0.428,0.4274,0.4233,0.4295,0.4295,0.4294,0,0.4543,0.4524,0.4481,0.4461,0.4452,0.4431,0.4408,0.4389,0.437,0.4365,0.4348,0.4347,0.4319,0.4335,0.4296,0.4315,0.4301,0.4293,0.4292,0.4288,0.4306,0.4273,0.422,0.4214,0.4285,0.4286,0.4286,0,0.4515,0.4478,0.4447,0.4437,0.4414,0.4399,0.4389,0.4371,0.4356,0.4336,0.4326,0.4302,0.4289,0.427,0.4262,0.4275,0.4222,0.4238,0.4216,0.4216,0.4204,0.4205,0.4147,0.4197,0.4198,0.4198,0.4198,0,0.4472,0.4445,0.4434,0.4415,0.4385,0.4379,0.4349,0.4339,0.4323,0.4301,0.4301,0.428,0.4272,0.4249,0.4243,0.421,0.4204,0.4199,0.4197,0.4198,0.4199,0.4188,0.4191,0.4196,0.4196,0.4197,0.4197,0,0.4435,0.4427,0.4393,0.4374,0.4368,0.4346,0.4329,0.431,0.4302,0.4274,0.4267,0.4253,0.4227,0.4217,0.4185,0.4181,0.4142,0.4144,0.4149,0.4148,0.4126,0.4128,0.4059,0.4049,0.4107,0.4106,0.4106,0,0.4408,0.4388,0.4366,0.4352,0.4341,0.4317,0.4302,0.4296,0.428,0.4256,0.4239,0.4213,0.4191,0.4149,0.4135,0.411,0.411,0.4088,0.4106,0.4107,0.4108,0.4109,0.4106,0.4084,0.4083,0.4083,0.4083,0,0.4361,0.4357,0.4336,0.4313,0.4295,0.4276,0.4258,0.4245,0.4236,0.4218,0.4191,0.4174,0.4141,0.4114,0.4088,0.4076,0.4077,0.4077,0.407,0.407,0.4074,0.407,0.4138,0.4078,0.4079,0.4079,0.4079,0.4079,0.4327,0.4308,0.429,0.4266,0.4251,0.4234,0.4214,0.4204,0.4181,0.4154,0.4151,0.4121,0.4102,0.4067,0.4054,0.403,0.4036,0.4026,0.4024,0.4021,0.4019,0.4078,0.4025,0.4025,0.4025,0.4025,0.4025,0,0.4279,0.4267,0.4244,0.4219,0.4199,0.4202,0.4182,0.4165,0.4139,0.4121,0.41,0.4068,0.4042,0.4026,0.4,0.3983,0.3983,0.3976,0.3977,0.3974,0.4016,0.4024,0.3977,0.3977,0.3977,0.3977,0.3977,0.3977,0.4251,0.4219,0.4213,0.4173,0.4161,0.4133,0.4121,0.4104,0.4089,0.4054,0.4032,0.4022,0.4004,0.3976,0.3952,0.3948,0.3938,0.393,0.3927,0.3966,0.3971,0.3976,0.3983,0.3929,0.3928,0.3886,0.3886,0.3886]}]]